[[{"header":{"parameterUnit":"m.s-1","parameterCategory":2,"la1":30.2991,"la2":30.254,"lo1":-89.0895,"lo2":-89.0444,"dy":0.0017,"dx":0.0017,"nx":28,"ny":28,"refTime":"2024-08-17T09:00:00:Z","depth":"0","parameterNumber":2,"parameterNumberName":"U-component_of_CURRENTS"},"data":[0,0,0,0,0,0,0,0,0,0,0,0,0,0,0,0,0,0,0,0,0,0,0,0,0,0,0,0,0,0,0,0,0,0,0,0,0,0,0,0,0,0,0,0,0,0,0,0,0,0,0,0,0,0,0,0,0,0,0.3544,0.3544,0,0.3503,0.3503,0.3502,0.3421,0.342,0.3419,0.3418,0.3403,0.3404,0.3405,0,0,0,0,0,0,0,0,0,0,0,0,0,0.3554,0.3554,0.3544,0.3544,0.3544,0.3504,0.3503,0.3502,0.3421,0.342,0.3419,0.3417,0.3403,0.3404,0.3405,0,0,0,0,0,0,0,0,0,0,0,0,0,0.3531,0.3554,0.3544,0.3502,0.3499,0.3504,0.3503,0.3501,0.3422,0.342,0.3418,0.3417,0.3403,0.3404,0.3405,0.3447,0,0,0.3408,0.3408,0,0,0,0,0,0,0,0,0.3532,0.353,0.3509,0.3505,0.3501,0.347,0.3501,0.3486,0.3422,0.3446,0.3418,0.3416,0.3432,0.3431,0.342,0.3446,0.3445,0.3408,0.3409,0.3409,0.3409,0,0,0,0,0,0,0,0.3534,0.3532,0.3523,0.3509,0.3504,0.3487,0.3481,0.3497,0.3447,0.3444,0.3439,0.3442,0.3429,0.3419,0.3419,0.3445,0.3408,0.3409,0.341,0.341,0.3592,0.3596,0,0,0,0,0,0,0.355,0.3533,0.3525,0.3523,0.3518,0.3488,0.3482,0.3478,0.3446,0.344,0.3444,0.3439,0.3418,0.3418,0.3419,0.3503,0.3409,0.341,0.3411,0.3588,0.3593,0.3598,0,0,0,0,0,0,0.355,0.355,0.3526,0.3531,0.3527,0.349,0.3487,0.3478,0.3476,0.3446,0.344,0.3452,0.3417,0.3417,0.3454,0.35,0.3411,0.3412,0.3583,0.359,0.3595,0.3649,0,0,0,0,0,0,0.3551,0.355,0.3557,0.3532,0.3528,0.355,0.3488,0.3479,0.3483,0.3476,0.3452,0.3447,0.3415,0.3453,0.3455,0.35,0.3412,0.3578,0.3586,0.3593,0.3641,0.3656,0.3668,0,0,0,0,0,0.3551,0.357,0.3557,0.3557,0.3537,0.3552,0.3549,0.3513,0.3485,0.3501,0.3487,0.3449,0.3505,0.3457,0.3458,0.3504,0.3574,0.3584,0.3593,0.3635,0.3653,0.3668,0,0,0,0,0,0,0.358,0.3563,0.3549,0.3561,0.3567,0.3541,0.3553,0.3533,0.3532,0.3525,0.3487,0.3484,0.355,0.3534,0.3481,0.3591,0.3541,0.3552,0.3573,0.359,0.3603,0.3631,0.3413,0,0,0,0,0,0.3593,0.3599,0.3589,0.3604,0.3611,0.3588,0.359,0.3571,0.3566,0.3561,0.3546,0.3554,0.3593,0.3591,0.3624,0.3664,0.3679,0.3707,0.372,0.3731,0.3763,0.3837,0.3858,0.3629,0.3629,0.3629,0,0,0.3606,0.3603,0.3603,0.3612,0.3608,0.3626,0.3584,0.3602,0.3619,0.3566,0.3592,0.3611,0.3625,0.3678,0.3705,0.3659,0.3804,0.3743,0.3751,0.3778,0.3849,0.387,0.389,0.3635,0.3634,0.3633,0,0,0.3632,0.3639,0.3646,0.3661,0.3672,0.367,0.3685,0.3676,0.3677,0.3708,0.3698,0.3748,0.3765,0.3792,0.3807,0.3925,0.3893,0.3936,0.3992,0.4062,0.4081,0.4097,0.4124,0.4143,0.3915,0.3915,0.3915,0,0.3646,0.3651,0.3657,0.3676,0.3691,0.3696,0.3715,0.3734,0.3739,0.3759,0.373,0.3824,0.3828,0.3917,0.3955,0.3953,0.3971,0.3911,0.4075,0.4092,0.4108,0.4132,0.4152,0.3919,0.3919,0.3918,0.3918,0,0.3664,0.3682,0.3701,0.3719,0.3747,0.3774,0.3801,0.3836,0.384,0.3848,0.3942,0.3964,0.4012,0.4034,0.402,0.415,0.4119,0.4096,0.4018,0.4133,0.4152,0.4172,0.3924,0.3923,0.3922,0.3921,0,0,0.3646,0.3696,0.3699,0.3717,0.377,0.379,0.3859,0.3911,0.3958,0.3991,0.4061,0.4141,0.4155,0.4182,0.4191,0.425,0.4364,0.4217,0.4219,0.4218,0.4495,0.4345,0.435,0.4357,0.4361,0.4365,0.4452,0,0.3651,0.3683,0.3714,0.3764,0.3787,0.3839,0.39,0.3959,0.4012,0.4091,0.4155,0.4234,0.421,0.4246,0.4308,0.4374,0.4423,0.4341,0.441,0.4412,0.4242,0.4372,0.4203,0.4257,0.4471,0.4474,0.4476,0,0.3646,0.3668,0.3706,0.378,0.3795,0.3836,0.394,0.3997,0.4126,0.4172,0.4269,0.432,0.4448,0.4404,0.4552,0.4496,0.4514,0.4542,0.4545,0.4407,0.43,0.4187,0.4284,0.4247,0.4506,0.4503,0.4501,0,0.3611,0.3669,0.3697,0.372,0.3803,0.3843,0.3898,0.4015,0.4092,0.4244,0.4325,0.4448,0.4533,0.4603,0.4652,0.4616,0.4796,0.4738,0.4618,0.4605,0.4481,0.4449,0.4529,0.485,0.485,0.485,0.485,0,0.3605,0.3628,0.3681,0.3696,0.3744,0.3818,0.3904,0.3986,0.4142,0.4241,0.4367,0.4477,0.4594,0.4693,0.4712,0.4725,0.4835,0.467,0.464,0.4491,0.446,0.4433,0.4413,0.4853,0.4853,0.4852,0.4851,0,0.3574,0.3607,0.3638,0.3705,0.3729,0.3766,0.3897,0.3978,0.4126,0.4277,0.4339,0.4539,0.4645,0.4726,0.4842,0.4785,0.4697,0.4788,0.458,0.4523,0.4314,0.4302,0.4144,0.4044,0.4668,0.4665,0.4662,0,0.3565,0.3577,0.3621,0.3644,0.3677,0.3743,0.3807,0.3951,0.4049,0.4293,0.4371,0.4541,0.4598,0.4712,0.4672,0.4665,0.4601,0.45,0.4399,0.4315,0.4283,0.4098,0.4014,0.4258,0.4252,0.4248,0.4244,0,0.3548,0.3559,0.3578,0.3611,0.3661,0.3708,0.3806,0.3866,0.4043,0.4156,0.4282,0.4349,0.4461,0.4382,0.4397,0.4378,0.4297,0.4399,0.4403,0.4055,0.3776,0.3658,0.4168,0.4204,0.4208,0.4211,0.4213,0.4215,0.3529,0.3526,0.3547,0.356,0.3619,0.3636,0.3594,0.3705,0.3774,0.3844,0.4048,0.4058,0.4154,0.4127,0.4092,0.3991,0.3961,0.39,0.3919,0.3759,0.3578,0.3965,0.39,0.3902,0.3904,0.3905,0.3907,0,0.3467,0.3467,0.35,0.3479,0.347,0.3528,0.3561,0.3472,0.3418,0.3567,0.3587,0.3679,0.3638,0.3727,0.3706,0.3584,0.3411,0.3524,0.3304,0.3268,0.3721,0.3622,0.3383,0.3383,0.3383,0.3383,0.3383,0.3383,0.3435,0.3401,0.3387,0.3305,0.3292,0.3169,0.3111,0.3018,0.3045,0.2996,0.3037,0.3138,0.3442,0.3538,0.3477,0.3386,0.3219,0.2991,0.3046,0.3474,0.3513,0.3549,0.3456,0.3185,0.3185,0.2443,0.2438,0.2434]},{"header":{"parameterUnit":"m.s-1","parameterCategory":2,"la1":30.2991,"la2":30.254,"lo1":-89.0895,"lo2":-89.0444,"dy":0.0017,"dx":0.0017,"nx":28,"ny":28,"refTime":"2024-08-17T09:00:00:Z","depth":"0","parameterNumber":3,"parameterNumberName":"V-component_of_CURRENTS"},"data":[0,0,0,0,0,0,0,0,0,0,0,0,0,0,0,0,0,0,0,0,0,0,0,0,0,0,0,0,0,0,0,0,0,0,0,0,0,0,0,0,0,0,0,0,0,0,0,0,0,0,0,0,0,0,0,0,0,0,0.0351,0.0351,0,0.03,0.03,0.0299,0.0255,0.0255,0.0255,0.0254,0.0191,0.019,0.0188,0,0,0,0,0,0,0,0,0,0,0,0,0,0.0332,0.0333,0.0351,0.0351,0.0351,0.0301,0.03,0.0299,0.0255,0.0255,0.0255,0.0254,0.0191,0.019,0.0188,0,0,0,0,0,0,0,0,0,0,0,0,0,0.0315,0.0333,0.0351,0.0325,0.0322,0.0301,0.03,0.0298,0.0255,0.0255,0.0255,0.0254,0.0192,0.019,0.0188,0.0182,0,0,0.0181,0.018,0,0,0,0,0,0,0,0,0.0316,0.0315,0.0329,0.0327,0.0324,0.0286,0.027,0.026,0.0255,0.0278,0.0254,0.0254,0.0224,0.0219,0.0207,0.0179,0.0176,0.0181,0.018,0.0179,0.0178,0,0,0,0,0,0,0,0.0317,0.0317,0.0329,0.0329,0.0325,0.0288,0.0286,0.0267,0.0251,0.0276,0.0273,0.0272,0.0222,0.0209,0.0205,0.0175,0.0181,0.0179,0.0178,0.0177,0.0158,0.0159,0,0,0,0,0,0,0.0333,0.0318,0.033,0.0327,0.0321,0.029,0.0287,0.0296,0.0252,0.0245,0.0272,0.027,0.0213,0.0207,0.0202,0.0228,0.0179,0.0177,0.0175,0.0157,0.0158,0.0159,0,0,0,0,0,0,0.0333,0.0335,0.0332,0.0323,0.032,0.0291,0.0302,0.0296,0.0288,0.0249,0.0242,0.0272,0.0212,0.0205,0.0191,0.0224,0.0176,0.0174,0.0156,0.0158,0.0159,0.0256,0,0,0,0,0,0,0.0333,0.0336,0.0346,0.0324,0.0321,0.0334,0.0302,0.0295,0.0288,0.0285,0.0247,0.024,0.0211,0.0195,0.0189,0.022,0.0172,0.0155,0.0157,0.0158,0.0252,0.0261,0.0268,0,0,0,0,0,0.0333,0.0355,0.0347,0.0348,0.0338,0.0335,0.033,0.0305,0.0289,0.0294,0.0263,0.0241,0.02,0.0193,0.0186,0.0218,0.0155,0.0156,0.0158,0.0248,0.0259,0.0268,0,0,0,0,0,0,0.0354,0.0353,0.0343,0.0364,0.0355,0.0329,0.0332,0.0313,0.0292,0.0286,0.0247,0.0238,0.024,0.0211,0.0204,0.0215,0.0176,0.0177,0.0247,0.0257,0.0265,0.0289,0.017,0,0,0,0,0,0.0364,0.0383,0.0369,0.0388,0.0386,0.0359,0.0354,0.0337,0.0317,0.0307,0.028,0.0253,0.0241,0.0235,0.0213,0.0218,0.0188,0.0233,0.0242,0.0249,0.0264,0.0255,0.0264,0.0165,0.0165,0.0165,0,0,0.0377,0.0381,0.039,0.0394,0.0383,0.0396,0.0355,0.0356,0.0368,0.0304,0.031,0.0279,0.0247,0.0253,0.0252,0.0234,0.0256,0.0251,0.0258,0.0269,0.0258,0.0268,0.0277,0.0166,0.0166,0.0166,0,0,0.0418,0.0417,0.0444,0.0443,0.0437,0.0425,0.043,0.0407,0.04,0.0397,0.036,0.0348,0.0322,0.0312,0.0302,0.0341,0.0298,0.0335,0.04,0.0392,0.0401,0.0408,0.0365,0.0367,0.0342,0.0342,0.0342,0,0.043,0.0468,0.045,0.0474,0.0486,0.0446,0.0477,0.0463,0.0439,0.0446,0.0413,0.0391,0.0356,0.038,0.0389,0.0363,0.0337,0.0369,0.0405,0.0411,0.0417,0.0371,0.0373,0.0347,0.0346,0.0346,0.0345,0,0.0488,0.0517,0.0534,0.0558,0.0565,0.0585,0.057,0.0572,0.0554,0.0541,0.0552,0.0501,0.0495,0.048,0.0444,0.0476,0.0435,0.0415,0.0385,0.0433,0.0381,0.0381,0.0354,0.0352,0.0351,0.0349,0,0,0.0523,0.0567,0.0574,0.0608,0.0614,0.0632,0.0655,0.0675,0.0709,0.0668,0.0716,0.067,0.0642,0.0629,0.0585,0.0569,0.0568,0.0514,0.0512,0.048,0.0528,0.0483,0.0478,0.0558,0.056,0.056,0.0468,0,0.0575,0.065,0.0654,0.0726,0.0765,0.0749,0.0785,0.0793,0.0791,0.0821,0.0774,0.0794,0.0701,0.071,0.0679,0.0609,0.0576,0.0593,0.0478,0.0475,0.0437,0.048,0.05,0.042,0.0468,0.0468,0.0468,0,0.0632,0.0679,0.0764,0.0833,0.0849,0.0885,0.0947,0.0972,0.0992,0.0994,0.0991,0.0954,0.0932,0.085,0.0742,0.0758,0.0652,0.0577,0.0572,0.0501,0.0432,0.0382,0.0417,0.0284,0.0467,0.0467,0.0467,0,0.0685,0.0759,0.0839,0.086,0.0923,0.0965,0.0999,0.103,0.1086,0.1115,0.1166,0.1105,0.1108,0.0977,0.0808,0.0783,0.0681,0.0628,0.0477,0.047,0.0451,0.0442,0.0356,0.0549,0.055,0.055,0.055,0,0.0751,0.0811,0.0875,0.0919,0.1019,0.1038,0.1148,0.1165,0.1238,0.1342,0.1268,0.1333,0.1144,0.1059,0.0872,0.0682,0.0726,0.0499,0.0458,0.0481,0.0476,0.0329,0.0241,0.0546,0.0547,0.0548,0.0548,0,0.0803,0.0841,0.0935,0.1018,0.1051,0.1125,0.125,0.1341,0.1385,0.1525,0.1552,0.1517,0.14,0.1183,0.0973,0.0783,0.0504,0.0507,0.0527,0.049,0.0213,0.013,-0.002,-0.0091,0.0326,0.0325,0.0323,0,0.0839,0.0896,0.1005,0.1072,0.1118,0.1232,0.133,0.1407,0.1526,0.1647,0.1741,0.1668,0.1634,0.1289,0.0955,0.062,0.0465,0.0409,0.0362,0.0214,0.0091,0.0035,-0.0018,0.0357,0.0357,0.0356,0.0355,0,0.0907,0.0945,0.1021,0.1157,0.1272,0.1411,0.156,0.1671,0.1799,0.1911,0.2022,0.1995,0.1681,0.1363,0.0908,0.0666,0.0321,0.0382,0.0245,0.0127,0.0047,-0.0045,0.0371,0.0349,0.035,0.0351,0.0351,0.0351,0.0951,0.1017,0.1122,0.1251,0.1393,0.158,0.1699,0.1869,0.2052,0.2213,0.2196,0.2191,0.1774,0.1153,0.0813,0.0264,0.0245,0.0091,0.0003,-0.0039,-0.0102,0.0282,0.0208,0.0208,0.0208,0.0208,0.0208,0,0.1005,0.1088,0.1212,0.1379,0.1544,0.161,0.1853,0.1982,0.2188,0.2328,0.2382,0.2225,0.1671,0.114,0.0404,-0.0011,-0.0154,-0.0231,-0.029,-0.0327,0.0036,0.0046,-0.0082,-0.0082,-0.0082,-0.0082,-0.0082,-0.0081,0.1039,0.1156,0.1222,0.1476,0.1605,0.1821,0.1955,0.2142,0.2292,0.245,0.2495,0.25,0.2201,0.0815,-0.0075,-0.0304,-0.0547,-0.0636,-0.0762,-0.0498,-0.0474,-0.0451,-0.0459,-0.0691,-0.0692,-0.1056,-0.106,-0.1063]}],[{"header":{"parameterUnit":"m.s-1","parameterCategory":2,"la1":30.2991,"la2":30.254,"lo1":-89.0895,"lo2":-89.0444,"dy":0.0017,"dx":0.0017,"nx":28,"ny":28,"refTime":"2024-08-17T09:00:00:Z","depth":"2","parameterNumber":2,"parameterNumberName":"U-component_of_CURRENTS"},"data":[0,0,0,0,0,0,0,0,0,0,0,0,0,0,0,0,0,0,0,0,0,0,0,0,0,0,0,0,0,0,0,0,0,0,0,0,0,0,0,0,0,0,0,0,0,0,0,0,0,0,0,0,0,0,0,0,0,0,0.3214,0.3214,0,0.3216,0.3216,0.3216,0.3188,0.3188,0.3187,0.3187,0.3193,0.3193,0.3194,0,0,0,0,0,0,0,0,0,0,0,0,0,0.3201,0.3201,0.3214,0.3214,0.3215,0.3216,0.3216,0.3216,0.3189,0.3188,0.3187,0.3186,0.3192,0.3193,0.3194,0,0,0,0,0,0,0,0,0,0,0,0,0,0.3204,0.3201,0.3214,0.3202,0.3202,0.3217,0.3216,0.3216,0.3189,0.3188,0.3187,0.3186,0.3192,0.3193,0.3194,0.3218,0,0,0.3197,0.3198,0,0,0,0,0,0,0,0,0.3204,0.3204,0.3204,0.3203,0.3202,0.3203,0.3214,0.3218,0.3189,0.3192,0.3187,0.3186,0.3198,0.3199,0.3198,0.3219,0.3219,0.3197,0.3198,0.3199,0.3199,0,0,0,0,0,0,0,0.3203,0.3204,0.3213,0.3204,0.3203,0.3202,0.3201,0.3214,0.3199,0.3191,0.319,0.3193,0.3197,0.3197,0.3198,0.3219,0.3197,0.3198,0.3199,0.3199,0.3355,0.3358,0,0,0,0,0,0,0.3207,0.3204,0.3213,0.3214,0.3203,0.3203,0.3202,0.3202,0.3198,0.3197,0.3194,0.3192,0.3196,0.3197,0.3199,0.3272,0.3199,0.32,0.32,0.3351,0.3355,0.3359,0,0,0,0,0,0,0.3207,0.3208,0.3213,0.321,0.3211,0.3205,0.3205,0.3203,0.3216,0.3201,0.3199,0.3211,0.3195,0.3197,0.3235,0.327,0.32,0.3201,0.3347,0.3352,0.3357,0.339,0,0,0,0,0,0,0.3206,0.3208,0.3222,0.321,0.3211,0.3242,0.3206,0.3203,0.322,0.3217,0.3215,0.3214,0.3195,0.3234,0.3236,0.327,0.3202,0.3343,0.3349,0.3356,0.3385,0.3396,0.3405,0,0,0,0,0,0.3206,0.322,0.3222,0.3224,0.3226,0.3244,0.3246,0.3236,0.3222,0.3242,0.3242,0.3214,0.3278,0.3237,0.3239,0.3274,0.3339,0.3347,0.3355,0.338,0.3394,0.3405,0,0,0,0,0,0,0.3209,0.3219,0.322,0.3234,0.3251,0.3241,0.3259,0.3252,0.3267,0.327,0.3246,0.3246,0.331,0.3296,0.3252,0.3348,0.331,0.3319,0.3329,0.3341,0.3352,0.34,0.3203,0,0,0,0,0,0.3221,0.3243,0.3249,0.3264,0.3276,0.3274,0.3284,0.3283,0.3288,0.3293,0.3291,0.3307,0.3345,0.3342,0.3381,0.3408,0.3428,0.3443,0.3453,0.3461,0.3509,0.3565,0.3583,0.3385,0.3385,0.3385,0,0,0.3232,0.3236,0.3251,0.3269,0.3278,0.3306,0.3278,0.3305,0.3329,0.3294,0.3333,0.3357,0.3372,0.3421,0.3445,0.3403,0.3526,0.3472,0.3478,0.3522,0.3575,0.3593,0.361,0.339,0.3389,0.3388,0,0,0.3248,0.3265,0.3287,0.3311,0.3337,0.3344,0.3359,0.3371,0.3382,0.3426,0.3423,0.3475,0.3498,0.3521,0.3533,0.3631,0.3604,0.3635,0.3688,0.3739,0.3755,0.377,0.3795,0.3811,0.3607,0.3607,0.3607,0,0.3267,0.3279,0.3299,0.3324,0.3345,0.3365,0.3393,0.3419,0.3442,0.3464,0.3453,0.3555,0.3559,0.363,0.3664,0.3654,0.3667,0.3621,0.3749,0.3764,0.3779,0.3801,0.3819,0.361,0.3609,0.3609,0.3609,0,0.3284,0.3314,0.3332,0.3373,0.3403,0.3437,0.3473,0.3514,0.3534,0.3554,0.3651,0.3678,0.3733,0.3742,0.3727,0.3832,0.3804,0.3772,0.3704,0.38,0.3818,0.3836,0.3613,0.3612,0.3612,0.3611,0,0,0.3282,0.3336,0.3345,0.3369,0.3432,0.3453,0.3523,0.3581,0.3629,0.3686,0.3756,0.3838,0.3863,0.3888,0.3884,0.3925,0.4018,0.3888,0.3889,0.3892,0.4117,0.3982,0.3988,0.399,0.3995,0.3998,0.4078,0,0.3294,0.3334,0.3365,0.3424,0.3452,0.351,0.3568,0.3632,0.369,0.3769,0.3838,0.3917,0.391,0.3943,0.3994,0.4036,0.4073,0.4,0.4047,0.405,0.3899,0.4008,0.3672,0.3706,0.4095,0.4098,0.41,0,0.3298,0.3323,0.337,0.3442,0.3462,0.3511,0.3611,0.3668,0.3792,0.3845,0.395,0.4,0.4116,0.4083,0.4212,0.416,0.4164,0.4178,0.4179,0.4067,0.395,0.3684,0.3724,0.413,0.4127,0.4125,0.4123,0,0.326,0.333,0.3361,0.3388,0.3476,0.3521,0.358,0.3693,0.3764,0.3909,0.3988,0.411,0.4197,0.4253,0.4295,0.4259,0.4415,0.4349,0.4234,0.4222,0.3961,0.3919,0.4446,0.4446,0.4446,0.4446,0.4445,0,0.325,0.3286,0.335,0.3371,0.3424,0.3503,0.3586,0.3671,0.3822,0.3914,0.403,0.4126,0.425,0.4336,0.4346,0.4358,0.4452,0.4294,0.4255,0.396,0.3919,0.4308,0.4291,0.4448,0.4448,0.4447,0.4447,0,0.3213,0.3259,0.3302,0.3383,0.3408,0.3453,0.3583,0.3658,0.3807,0.3944,0.4003,0.4185,0.4281,0.4365,0.4458,0.4412,0.4431,0.4395,0.4034,0.3951,0.4188,0.4172,0.4291,0.4287,0.4284,0.4282,0.4279,0,0.3192,0.3207,0.328,0.3316,0.336,0.3432,0.3489,0.3634,0.3712,0.3951,0.4009,0.4177,0.4223,0.4323,0.4273,0.4263,0.4369,0.3946,0.3826,0.4233,0.4183,0.4172,0.4161,0.3483,0.3475,0.3468,0.3462,0,0.3161,0.3195,0.3227,0.3272,0.3331,0.337,0.3458,0.3515,0.3688,0.3789,0.3904,0.397,0.4068,0.3901,0.3916,0.3864,0.3923,0.3802,0.4347,0.3569,0.3476,0.3425,0.344,0.34,0.3406,0.3411,0.3414,0.3417,0.3136,0.314,0.3182,0.3201,0.3282,0.3295,0.3246,0.3342,0.3397,0.3481,0.3657,0.3619,0.3667,0.3485,0.338,0.3302,0.3565,0.3409,0.3429,0.3456,0.3343,0.325,0.311,0.3114,0.3118,0.3121,0.3124,0,0.3046,0.3069,0.3111,0.3111,0.3121,0.3193,0.3205,0.3111,0.3064,0.3189,0.3212,0.2952,0.2847,0.2896,0.2669,0.2668,0.2629,0.257,0.2493,0.2557,0.2614,0.2455,0.1987,0.1984,0.198,0.1977,0,0,0.3018,0.299,0.2976,0.2924,0.2943,0.2852,0.2803,0.2693,0.2686,0.2597,0.2541,0.2724,0.2815,0.2366,0.2313,0.211,0.2317,0.2026,0.2943,0.2918,0.297,0.3109,0.2939,0,0,0,0,0]},{"header":{"parameterUnit":"m.s-1","parameterCategory":2,"la1":30.2991,"la2":30.254,"lo1":-89.0895,"lo2":-89.0444,"dy":0.0017,"dx":0.0017,"nx":28,"ny":28,"refTime":"2024-08-17T09:00:00:Z","depth":"2","parameterNumber":3,"parameterNumberName":"V-component_of_CURRENTS"},"data":[0,0,0,0,0,0,0,0,0,0,0,0,0,0,0,0,0,0,0,0,0,0,0,0,0,0,0,0,0,0,0,0,0,0,0,0,0,0,0,0,0,0,0,0,0,0,0,0,0,0,0,0,0,0,0,0,0,0,0.0239,0.0239,0,0.0202,0.0201,0.02,0.017,0.017,0.017,0.0169,0.0112,0.0111,0.0109,0,0,0,0,0,0,0,0,0,0,0,0,0,0.0215,0.0216,0.0239,0.0239,0.0239,0.0202,0.0201,0.02,0.017,0.017,0.017,0.0169,0.0113,0.0111,0.0109,0,0,0,0,0,0,0,0,0,0,0,0,0,0.0204,0.0216,0.0239,0.0221,0.0219,0.0202,0.0201,0.02,0.017,0.017,0.017,0.0169,0.0113,0.0111,0.0109,0.01,0,0,0.0103,0.0102,0,0,0,0,0,0,0,0,0.0205,0.0205,0.0224,0.0222,0.022,0.0192,0.0171,0.0166,0.017,0.0186,0.0169,0.0169,0.0139,0.0134,0.0125,0.0097,0.0095,0.0102,0.0101,0.01,0.01,0,0,0,0,0,0,0,0.0206,0.0206,0.0222,0.0223,0.0221,0.019,0.0189,0.017,0.0162,0.0185,0.0183,0.0182,0.0137,0.0127,0.0123,0.0094,0.0102,0.0101,0.0099,0.0098,0.0072,0.0073,0,0,0,0,0,0,0.0219,0.0208,0.0224,0.0221,0.0214,0.0191,0.019,0.0199,0.0163,0.0157,0.0182,0.0181,0.0131,0.0126,0.0121,0.014,0.01,0.0098,0.0097,0.0072,0.0072,0.0073,0,0,0,0,0,0,0.0219,0.0221,0.0225,0.0214,0.0213,0.0193,0.0203,0.0199,0.0195,0.0161,0.0155,0.0184,0.013,0.0124,0.0111,0.0136,0.0097,0.0095,0.0071,0.0072,0.0073,0.0157,0,0,0,0,0,0,0.0218,0.0222,0.0233,0.0216,0.0214,0.0228,0.0204,0.0198,0.0195,0.0193,0.0161,0.0155,0.013,0.0114,0.0109,0.0133,0.0094,0.007,0.0071,0.0072,0.0153,0.0161,0.0167,0,0,0,0,0,0.0218,0.0237,0.0234,0.0236,0.0231,0.0229,0.0225,0.0207,0.0196,0.0201,0.0175,0.0156,0.0117,0.0113,0.0106,0.013,0.007,0.0071,0.0072,0.015,0.0159,0.0167,0,0,0,0,0,0,0.0229,0.0236,0.0231,0.0251,0.0246,0.0224,0.0229,0.0214,0.0198,0.0195,0.016,0.0152,0.0152,0.0125,0.0121,0.0124,0.0092,0.0092,0.0153,0.0161,0.0168,0.0195,0.0092,0,0,0,0,0,0.0239,0.0261,0.0252,0.027,0.027,0.025,0.0246,0.0235,0.0218,0.0211,0.0188,0.0164,0.0151,0.0144,0.0124,0.0124,0.0096,0.0135,0.0142,0.0147,0.0165,0.0142,0.0148,0.0077,0.0077,0.0077,0,0,0.025,0.0256,0.0267,0.0274,0.0268,0.0282,0.0247,0.025,0.0263,0.0207,0.0215,0.0186,0.0155,0.0157,0.0155,0.0139,0.015,0.0149,0.0155,0.0169,0.0144,0.0151,0.0157,0.0078,0.0078,0.0078,0,0,0.0283,0.0287,0.0315,0.0316,0.0316,0.0307,0.0312,0.0296,0.029,0.0291,0.0257,0.0245,0.022,0.0207,0.0197,0.0227,0.0185,0.0218,0.0277,0.0255,0.0261,0.0266,0.0229,0.023,0.0223,0.0223,0.0223,0,0.0296,0.0333,0.032,0.0345,0.0358,0.0325,0.0356,0.0344,0.0326,0.0331,0.0306,0.0284,0.025,0.0265,0.0271,0.0246,0.0218,0.0252,0.0265,0.027,0.0273,0.0234,0.0234,0.0227,0.0227,0.0226,0.0226,0,0.0347,0.0378,0.0394,0.0422,0.043,0.0451,0.044,0.0442,0.0429,0.0418,0.0425,0.0379,0.0373,0.0355,0.0321,0.0337,0.0303,0.0276,0.025,0.0286,0.0242,0.024,0.0233,0.0232,0.0231,0.023,0,0,0.0382,0.0425,0.0433,0.0468,0.0477,0.0495,0.0516,0.0534,0.0563,0.053,0.0569,0.0527,0.0502,0.0488,0.0445,0.0417,0.0405,0.0363,0.036,0.0335,0.0345,0.0306,0.0299,0.038,0.038,0.0381,0.03,0,0.0432,0.0504,0.0509,0.058,0.0619,0.0606,0.0637,0.0643,0.0639,0.0662,0.0617,0.0631,0.0554,0.056,0.0521,0.0444,0.0407,0.0429,0.0307,0.0303,0.0271,0.0299,0.0303,0.0231,0.0299,0.0298,0.0298,0,0.0488,0.0533,0.0615,0.0681,0.0697,0.0733,0.0788,0.0811,0.0818,0.0819,0.0815,0.0775,0.0746,0.0673,0.056,0.0577,0.0472,0.0395,0.039,0.0328,0.0262,0.0206,0.0225,0.0295,0.0295,0.0296,0.0296,0,0.0538,0.0611,0.0688,0.0709,0.0769,0.081,0.0842,0.0865,0.0914,0.0929,0.097,0.0906,0.0907,0.0772,0.0608,0.0587,0.047,0.0421,0.0283,0.0277,0.0246,0.0237,0.0336,0.0337,0.0337,0.0337,0.0337,0,0.0599,0.0661,0.0723,0.0767,0.0863,0.0882,0.0982,0.0996,0.1058,0.1147,0.1066,0.1112,0.0933,0.084,0.066,0.0476,0.0509,0.0304,0.0263,0.0272,0.0268,0.0297,0.0293,0.0334,0.0335,0.0335,0.0336,0,0.0649,0.0688,0.0782,0.0863,0.0893,0.0966,0.1082,0.1163,0.1198,0.1316,0.1336,0.1282,0.1156,0.0951,0.0737,0.0566,0.0376,0.0295,0.031,0.0272,0.0179,0.018,0.0139,0.0137,0.0135,0.0134,0.0133,0,0.068,0.0734,0.0847,0.0917,0.0964,0.1072,0.1161,0.1229,0.133,0.1424,0.1497,0.1414,0.1364,0.1024,0.0711,0.0399,0.0358,0.019,0.0149,0.0199,0.0163,0.0167,0.0171,0.0129,0.0128,0.0127,0.0126,0,0.0741,0.0785,0.0862,0.0997,0.1109,0.1235,0.1367,0.1467,0.1576,0.1662,0.1739,0.1701,0.1397,0.1072,0.0651,0.043,0.0239,0.0162,0.0227,0.0182,0.0185,0.015,0.0155,0.0119,0.012,0.012,0.0121,0.0121,0.0783,0.0849,0.0955,0.1081,0.1224,0.1395,0.1496,0.1644,0.1796,0.1927,0.1887,0.1813,0.1484,0.0916,0.0556,0.0173,0.0199,0.0044,0.0049,0.0055,0.0072,0.0072,-0.0013,-0.0013,-0.0013,-0.0013,-0.0013,0,0.0828,0.0913,0.1035,0.12,0.1362,0.1429,0.1636,0.1738,0.1911,0.2005,0.2032,0.1672,0.1313,0.0922,0.0361,0.0038,0.0013,-0.0087,-0.0041,-0.0031,-0.0023,-0.0008,-0.0116,-0.0117,-0.0118,-0.0119,0,0,0.0863,0.0975,0.1036,0.1283,0.1418,0.1627,0.1744,0.1878,0.1971,0.2028,0.1972,0.1882,0.1422,0.0993,0.055,0.0221,0.017,0.0144,0.0261,0.0379,0.0391,0.0083,0.012,0,0,0,0,0]}],[{"header":{"parameterUnit":"m.s-1","parameterCategory":2,"la1":30.2991,"la2":30.254,"lo1":-89.0895,"lo2":-89.0444,"dy":0.0017,"dx":0.0017,"nx":28,"ny":28,"refTime":"2024-08-17T09:00:00:Z","depth":"4","parameterNumber":2,"parameterNumberName":"U-component_of_CURRENTS"},"data":[0,0,0,0,0,0,0,0,0,0,0,0,0,0,0,0,0,0,0,0,0,0,0,0,0,0,0,0,0,0,0,0,0,0,0,0,0,0,0,0,0,0,0,0,0,0,0,0,0,0,0,0,0,0,0,0,0,0,0.193,0.1931,0,0.2041,0.2042,0.2043,0.2133,0.2134,0.2135,0.2136,0.2202,0.2202,0.2203,0,0,0,0,0,0,0,0,0,0,0,0,0,0.1794,0.1796,0.193,0.1931,0.1933,0.2041,0.2042,0.2043,0.2133,0.2134,0.2136,0.2137,0.2202,0.2202,0.2203,0,0,0,0,0,0,0,0,0,0,0,0,0,0.1872,0.1796,0.193,0.1992,0.1998,0.204,0.2042,0.2044,0.2133,0.2134,0.2136,0.2138,0.2201,0.2202,0.2203,0.2179,0,0,0.2207,0.2207,0,0,0,0,0,0,0,0,0.1868,0.1877,0.1981,0.1987,0.1995,0.2076,0.2018,0.2087,0.2132,0.208,0.2136,0.2138,0.2155,0.216,0.2176,0.2182,0.2185,0.2207,0.2208,0.2208,0.2209,0,0,0,0,0,0,0,0.1862,0.1873,0.1973,0.1983,0.1991,0.2013,0.2026,0.2032,0.2106,0.2085,0.2092,0.2106,0.2159,0.2175,0.2178,0.2186,0.2207,0.2208,0.2209,0.2209,0.2271,0.2272,0,0,0,0,0,0,0.185,0.1867,0.1969,0.1976,0.1935,0.2014,0.2029,0.2047,0.2107,0.2118,0.2105,0.211,0.2172,0.2177,0.2181,0.225,0.2208,0.2209,0.221,0.227,0.2271,0.2272,0,0,0,0,0,0,0.1846,0.1858,0.1965,0.1925,0.194,0.2015,0.2035,0.2049,0.211,0.2123,0.2133,0.2158,0.2174,0.2179,0.2225,0.2249,0.221,0.2211,0.2269,0.227,0.2271,0.2326,0,0,0,0,0,0,0.1842,0.1856,0.1889,0.1924,0.1942,0.2011,0.2035,0.205,0.2114,0.2123,0.217,0.2176,0.2175,0.2223,0.2226,0.225,0.2212,0.2267,0.2269,0.2271,0.2323,0.2329,0.2334,0,0,0,0,0,0.1837,0.1857,0.189,0.1903,0.1977,0.2012,0.2024,0.2081,0.2116,0.2143,0.2181,0.2177,0.2236,0.2225,0.2228,0.2253,0.2267,0.2269,0.2271,0.232,0.2328,0.2334,0,0,0,0,0,0,0.1811,0.187,0.1906,0.1945,0.1991,0.2029,0.2065,0.2103,0.2156,0.2182,0.2192,0.22,0.2248,0.2241,0.2228,0.2275,0.2249,0.2251,0.2285,0.2292,0.2298,0.2346,0.2213,0,0,0,0,0,0.1821,0.1862,0.191,0.195,0.1973,0.203,0.2062,0.2104,0.2144,0.2174,0.2199,0.2227,0.225,0.2267,0.2281,0.2306,0.2326,0.2323,0.2328,0.2333,0.2374,0.2412,0.2426,0.2279,0.2279,0.2279,0,0,0.1823,0.1863,0.1888,0.195,0.1992,0.203,0.2054,0.2114,0.2161,0.2167,0.2238,0.2253,0.2262,0.2297,0.2316,0.23,0.2383,0.2336,0.234,0.2379,0.2416,0.2431,0.2444,0.228,0.228,0.228,0,0,0.1828,0.1883,0.1916,0.1955,0.2029,0.2061,0.2086,0.2146,0.2193,0.225,0.2269,0.2315,0.2335,0.2359,0.2368,0.2415,0.2414,0.2403,0.2472,0.2507,0.252,0.2532,0.2567,0.2581,0.2403,0.2403,0.2403,0,0.1833,0.1884,0.193,0.1969,0.201,0.2076,0.2117,0.2166,0.2237,0.2277,0.2282,0.2358,0.2371,0.2425,0.2452,0.2432,0.245,0.2443,0.2517,0.2529,0.254,0.2573,0.2589,0.2406,0.2405,0.2405,0.2405,0,0.1855,0.1911,0.1931,0.2008,0.2051,0.2101,0.2165,0.2226,0.2286,0.2331,0.2412,0.2436,0.2487,0.2485,0.2493,0.2573,0.2559,0.2521,0.2503,0.2559,0.2589,0.2604,0.241,0.2409,0.2408,0.2407,0,0,0.1835,0.1929,0.1946,0.1987,0.2084,0.2115,0.22,0.2284,0.235,0.2418,0.2495,0.2554,0.2589,0.2606,0.2612,0.2655,0.275,0.2638,0.2638,0.2681,0.2838,0.2641,0.2638,0.2721,0.2724,0.2727,0.2824,0,0.1851,0.1919,0.197,0.2046,0.2084,0.2168,0.2233,0.2323,0.2399,0.2483,0.2548,0.2619,0.2624,0.2663,0.2712,0.2751,0.2795,0.2729,0.2773,0.2776,0.2599,0.265,0.2737,0.2835,0.2839,0.2841,0.2843,0,0.1854,0.1912,0.1981,0.2072,0.2098,0.2158,0.2284,0.2354,0.2485,0.2546,0.2642,0.269,0.2807,0.2777,0.29,0.2858,0.2875,0.2887,0.2889,0.2706,0.2606,0.277,0.287,0.2868,0.2866,0.2864,0.2863,0,0.1808,0.1908,0.1967,0.2003,0.2119,0.2183,0.226,0.2387,0.2456,0.261,0.2678,0.2792,0.2877,0.2927,0.2985,0.2957,0.3087,0.3032,0.2867,0.2854,0.2981,0.2967,0.3109,0.3109,0.3108,0.3108,0.3108,0,0.1778,0.1834,0.196,0.2,0.2076,0.2174,0.2281,0.2367,0.2507,0.2586,0.2722,0.2794,0.2926,0.3004,0.3024,0.3,0.3119,0.2909,0.287,0.2997,0.2985,0.2991,0.2976,0.3112,0.3111,0.311,0.311,0,0.1698,0.1787,0.1861,0.2007,0.2054,0.2115,0.2276,0.2338,0.2501,0.2614,0.2673,0.2844,0.2951,0.3032,0.3124,0.3035,0.3031,0.2982,0.3142,0.3106,0.2769,0.2756,0.2817,0.2811,0.2806,0.2802,0.2798,0,0.1653,0.1685,0.1846,0.1883,0.1956,0.2073,0.2139,0.2313,0.2371,0.2613,0.2633,0.2818,0.291,0.2893,0.2987,0.2996,0.295,0.2926,0.2834,0.2786,0.2744,0.2738,0.2732,0.279,0.2789,0.2787,0.2786,0,0.1564,0.164,0.1706,0.179,0.1869,0.1944,0.2057,0.2094,0.2294,0.246,0.2545,0.2614,0.2723,0.2782,0.2807,0.2802,0.293,0.2871,0.2881,0.2795,0.2754,0.2715,0.2715,0.2768,0.2771,0.2772,0.2773,0,0.15,0.1512,0.1607,0.1657,0.1739,0.1778,0.1877,0.1958,0.2053,0.2306,0.2333,0.2533,0.2702,0.2683,0.2706,0.2688,0.2641,0.2537,0.2563,0.2584,0.2456,0.2367,0.2251,0,0,0,0,0,0.1424,0.1417,0.1453,0.1506,0.1578,0.1646,0.1781,0.1889,0.2093,0.2085,0.2204,0.2292,0.2368,0.2462,0.2396,0.2589,0.2642,0.2498,0.2532,0.2669,0.269,0.2558,0,0,0,0,0,0,0.1364,0.1405,0.1407,0.1364,0.1378,0.1459,0.156,0.1714,0.1716,0.1931,0.1979,0.2135,0.2232,0.2379,0.2348,0.2372,0.234,0.261,0.2603,0.2658,0.2676,0.2693,0.2565,0,0,0,0,0]},{"header":{"parameterUnit":"m.s-1","parameterCategory":2,"la1":30.2991,"la2":30.254,"lo1":-89.0895,"lo2":-89.0444,"dy":0.0017,"dx":0.0017,"nx":28,"ny":28,"refTime":"2024-08-17T09:00:00:Z","depth":"4","parameterNumber":3,"parameterNumberName":"V-component_of_CURRENTS"},"data":[0,0,0,0,0,0,0,0,0,0,0,0,0,0,0,0,0,0,0,0,0,0,0,0,0,0,0,0,0,0,0,0,0,0,0,0,0,0,0,0,0,0,0,0,0,0,0,0,0,0,0,0,0,0,0,0,0,0,0.0106,0.0106,0,0.0091,0.009,0.009,0.0075,0.0074,0.0074,0.0074,0.0036,0.0035,0.0034,0,0,0,0,0,0,0,0,0,0,0,0,0,0.0082,0.0083,0.0106,0.0106,0.0106,0.0091,0.009,0.009,0.0075,0.0074,0.0074,0.0074,0.0036,0.0035,0.0034,0,0,0,0,0,0,0,0,0,0,0,0,0,0.0081,0.0083,0.0106,0.0098,0.0097,0.0091,0.009,0.009,0.0075,0.0074,0.0074,0.0074,0.0037,0.0035,0.0034,0.0027,0,0,0.0029,0.0029,0,0,0,0,0,0,0,0,0.0081,0.0081,0.0099,0.0098,0.0097,0.0086,0.0068,0.0068,0.0075,0.0081,0.0074,0.0074,0.0052,0.0049,0.0044,0.0025,0.0023,0.0029,0.0028,0.0028,0.0027,0,0,0,0,0,0,0,0.0081,0.0082,0.0098,0.0099,0.0098,0.0081,0.0081,0.0068,0.0065,0.0081,0.008,0.0081,0.0051,0.0046,0.0043,0.0023,0.0029,0.0028,0.0027,0.0026,0.0001,0.0001,0,0,0,0,0,0,0.0088,0.0082,0.0099,0.0098,0.009,0.0082,0.0081,0.0088,0.0066,0.0063,0.0081,0.008,0.0048,0.0045,0.0042,0.005,0.0028,0.0026,0.0026,0.0001,0.0001,0.0001,0,0,0,0,0,0,0.0088,0.009,0.01,0.009,0.0091,0.0083,0.009,0.0088,0.0087,0.0067,0.0063,0.0083,0.0048,0.0044,0.0036,0.0047,0.0026,0.0024,0.0001,0.0001,0.0001,0.0054,0,0,0,0,0,0,0.0088,0.009,0.0098,0.0091,0.0092,0.0103,0.009,0.0088,0.0089,0.0088,0.0067,0.0064,0.0048,0.0038,0.0034,0.0045,0.0023,0.0,0.0001,0.0001,0.0052,0.0056,0.0059,0,0,0,0,0,0.0087,0.0099,0.0099,0.0101,0.0103,0.0103,0.0102,0.0094,0.0089,0.0092,0.0078,0.0064,0.0037,0.0037,0.0033,0.0043,0.0,0.0001,0.0001,0.005,0.0055,0.0059,0,0,0,0,0,0,0.0091,0.0099,0.0098,0.0112,0.0111,0.0101,0.0106,0.0099,0.009,0.009,0.0068,0.0063,0.0058,0.0042,0.0042,0.0035,0.0016,0.0016,0.0055,0.0059,0.0063,0.0076,0.0022,0,0,0,0,0,0.0097,0.0111,0.011,0.0122,0.0124,0.0115,0.0115,0.011,0.0102,0.0098,0.0084,0.0068,0.0055,0.0052,0.0035,0.0035,0.0007,0.0037,0.0041,0.0044,0.0051,0.0014,0.0015,0.0003,0.0003,0.0003,0,0,0.0101,0.0108,0.0115,0.0124,0.0123,0.0134,0.0115,0.0119,0.0128,0.0095,0.0101,0.0079,0.0056,0.0054,0.0051,0.0045,0.0033,0.0045,0.0048,0.0053,0.0014,0.0016,0.0017,0.0003,0.0003,0.0003,0,0,0.0119,0.0125,0.0143,0.0146,0.0151,0.0149,0.0153,0.0147,0.0145,0.0145,0.0122,0.0109,0.0092,0.0079,0.007,0.0083,0.005,0.0078,0.0114,0.0079,0.0079,0.008,0.0049,0.0046,0.0085,0.0086,0.0086,0,0.0124,0.0151,0.0146,0.0163,0.0176,0.016,0.0182,0.0175,0.0167,0.017,0.0154,0.0125,0.0104,0.0103,0.0108,0.0093,0.0068,0.0102,0.0084,0.0084,0.0083,0.0051,0.0047,0.0088,0.0088,0.0088,0.0087,0,0.0156,0.0177,0.0188,0.0211,0.0219,0.0235,0.0232,0.0234,0.0228,0.022,0.0212,0.0176,0.0164,0.0151,0.0136,0.0128,0.011,0.0089,0.0075,0.0088,0.0053,0.0048,0.0092,0.0091,0.009,0.0089,0,0,0.0172,0.0206,0.0212,0.0238,0.025,0.0266,0.0278,0.0291,0.0308,0.0279,0.0294,0.0258,0.0237,0.0224,0.0196,0.0165,0.0138,0.0134,0.0131,0.0109,0.0062,0.0052,0.0045,0.0114,0.0114,0.0113,0.0039,0,0.0203,0.0253,0.026,0.0311,0.034,0.0336,0.0356,0.0361,0.0354,0.0358,0.0314,0.0314,0.0266,0.0266,0.0225,0.0162,0.0127,0.016,0.0048,0.0045,0.0039,0.004,0.0111,0.0036,0.0034,0.0033,0.0033,0,0.0237,0.0271,0.0329,0.038,0.0393,0.0419,0.0457,0.0473,0.0465,0.0458,0.0435,0.0399,0.036,0.0314,0.0204,0.0228,0.0153,0.0093,0.0089,0.0059,0.0027,0.0018,0.0023,0.0024,0.0025,0.0025,0.0026,0,0.0268,0.0322,0.0377,0.0394,0.0441,0.0472,0.0499,0.0508,0.0536,0.0528,0.054,0.0471,0.0454,0.0343,0.0217,0.0214,0.0085,0.0064,-0.0019,-0.0021,-0.0014,-0.0013,-0.0019,-0.0019,-0.0019,-0.0018,-0.0018,0,0.0303,0.0348,0.0401,0.0434,0.0508,0.0524,0.0597,0.0601,0.0624,0.0667,0.0603,0.0605,0.046,0.0368,0.0239,0.0096,0.0098,-0.0012,-0.004,0.001,0.0014,-0.0017,-0.0016,-0.0021,-0.0021,-0.002,-0.002,0,0.0326,0.0359,0.043,0.0498,0.0527,0.0583,0.0672,0.0718,0.0729,0.0779,0.0783,0.071,0.0595,0.0434,0.0256,0.0141,-0.0006,-0.0061,0.0011,-0.0013,-0.0093,-0.0089,-0.0151,-0.0152,-0.0152,-0.0153,-0.0154,0,0.0341,0.0381,0.048,0.0532,0.057,0.066,0.0725,0.0769,0.0815,0.084,0.0858,0.0776,0.0706,0.0455,0.0269,0.0021,-0.0019,-0.0102,-0.0104,-0.0085,-0.0107,-0.0101,-0.0095,-0.0155,-0.0155,-0.0155,-0.0156,0,0.0372,0.041,0.0469,0.0577,0.0661,0.076,0.0846,0.0889,0.0941,0.0951,0.0934,0.0813,0.0683,0.0472,0.0279,0.0095,-0.0053,-0.0111,-0.0111,-0.0113,-0.0091,-0.011,-0.0104,-0.0158,-0.0158,-0.0158,-0.0158,0,0.0395,0.0439,0.0521,0.0616,0.0721,0.0822,0.0877,0.0937,0.0988,0.1002,0.0992,0.0856,0.0774,0.0509,0.0326,0.0149,0.0102,0.0033,0.0025,0.0025,0.0089,0.0144,0.0128,0,0,0,0,0,0.0414,0.0466,0.0553,0.0659,0.0761,0.0831,0.0937,0.0981,0.103,0.1031,0.1016,0.0896,0.0651,0.0538,0.0364,0.0289,0.0053,0.0075,-0.0035,-0.0174,-0.017,-0.0127,0,0,0,0,0,0,0.0429,0.0508,0.0551,0.0676,0.0753,0.0878,0.0956,0.0997,0.0992,0.1009,0.0883,0.0833,0.059,0.0753,0.0354,0.03,0.0201,-0.0038,-0.0042,-0.0175,-0.0173,-0.017,-0.0125,0,0,0,0,0]}]]